Location: Gleizolles
(44.4833°N, 6.7667°E)
Time: 00:33:27
(UTC+00:00)

S-56A Canister/Altair - Pass Details

Date: 26 June 2024
Orbit: 638 x 2488 km, 38.9° (Epoch: 24 July)

Event Time Altitude Azimuth Distance (km) Brightness Sun altitude
Rises 19:06:43 0° 230° (SW) 3,668 11.3 1.4°
Reaches altitude 10° 19:09:05 10° 224° (SW) 2,915 10.7 1.1°
Maximum altitude 19:15:55 45° 154° (SSE) 1,844 9.1 0.0°
Drops below altitude 10° 19:26:01 10° 87° (E) 4,283 10.9 -1.4°
Sets 19:30:15 0° 82° (E) 5,553 11.5 -2.1°
